Leesburg, FL

1:59 AM EDT on September 01, 2016 (GMT -0400)
Leesburg Regional

Weather History for KLEE - December, 2013

Change the Weather History Date:

Saturday, December 28, 2013

  Actual Average Record
Temperature  
Mean Temperature 68 °F -  
Max Temperature 75 °F 69 °F 84 °F (2015)
Min Temperature 62 °F 46 °F 26 °F (1985)
Cooling Degree Days 4    
Growing Degree Days 18 (Base 50)    
Moisture  
Dew Point 66 °F    
Average Humidity 91    
Maximum Humidity 100    
Minimum Humidity 79    
Precipitation  
Precipitation 0.00 in - - ()
Sea Level Pressure  
Sea Level Pressure 30.18 in    
Wind  
Wind Speed 7 mph (East)    
Max Wind Speed 12 mph    
Max Gust Speed -    
Visibility 8 miles    
Events Rain    
Averages and records for this station are not official NWS values.
T = Trace of Precipitation, MM = Missing Value Source: NWS Daily Summary

Daily Weather History Graph

Daily Weather History Graph

Search for Another Location

Airport or City:

Trip Planner

Search our weather history database for the weather conditions in past years. The results will help you decide how hot, cold, wet, or windy it might be!

Date:

Astronomy

Dec. 28, 2013 Rise Set
Actual Time 7:19 AM EST 5:38 PM EST
Civil Twilight 6:53 AM EST 6:04 PM EST
Nautical Twilight 6:23 AM EST 6:34 PM EST
Astronomical Twilight 5:54 AM EST 7:03 PM EST
Moon 3:05 AM EST (12/28) 2:19 PM EST (12/28)
Length of Visible Light 11h 11m
Length of Day
10h 19m
Waning Crescent, 19% of the Moon is Illuminated
Dec 28
Waning Crescent
Jan 1
New
Jan 7
First Quarter
Jan 15
Full
Jan 24
Last Quarter

Hourly Weather History & Observations

Time (EST) Temp. Dew Point Humidity Pressure Visibility Wind Dir Wind Speed Gust Speed Precip Events Conditions
12:02 AM 62.6 °F 60.8 °F 94% 30.26 in 9.0 mi NNE 6.9 mph - N/A   Overcast
12:40 AM 62.6 °F 60.8 °F 94% 30.26 in 10.0 mi NNE 6.9 mph - N/A   Overcast
12:53 AM 63.0 °F 60.1 °F 90% 30.26 in 10.0 mi NNE 6.9 mph - N/A   Overcast
1:25 AM 62.6 °F 60.8 °F 94% 30.25 in 10.0 mi NNE 6.9 mph - N/A   Overcast
1:50 AM 62.6 °F 60.8 °F 94% 30.24 in 10.0 mi NE 6.9 mph - N/A   Overcast
1:53 AM 63.0 °F 60.1 °F 90% 30.24 in 10.0 mi NE 6.9 mph - N/A   Overcast
1:59 AM 62.6 °F 60.8 °F 94% 30.24 in 10.0 mi NE 5.8 mph - N/A   Overcast
2:53 AM 64.0 °F 61.0 °F 90% 30.22 in 10.0 mi NNE 6.9 mph - N/A   Overcast
3:53 AM 63.0 °F 62.1 °F 97% 30.21 in 8.0 mi NE 6.9 mph - N/A   Overcast
4:53 AM 64.0 °F 62.1 °F 93% 30.19 in 10.0 mi NE 8.1 mph - N/A   Overcast
5:31 AM 64.4 °F 62.6 °F 94% 30.18 in 5.0 mi ENE 8.1 mph - N/A   Overcast
5:53 AM 64.9 °F 63.0 °F 93% 30.19 in 8.0 mi NE 5.8 mph - N/A   Overcast
6:53 AM 66.0 °F 64.0 °F 93% 30.20 in 10.0 mi ENE 8.1 mph - N/A   Overcast
7:53 AM 66.0 °F 64.9 °F 96% 30.20 in 10.0 mi East 5.8 mph - N/A   Overcast
8:23 AM 66.2 °F 66.2 °F 100% 30.21 in 1.8 mi ENE 9.2 mph - 0.00 in Rain Light Rain
8:39 AM 68.0 °F 66.2 °F 94% 30.22 in 2.5 mi ENE 4.6 mph - 0.00 in Rain Light Rain
8:46 AM 68.0 °F 66.2 °F 94% 30.22 in 3.0 mi East 3.5 mph - 0.00 in Rain Light Rain
8:53 AM 68.0 °F 66.0 °F 93% 30.23 in 2.0 mi East 4.6 mph - 0.00 in Rain Light Rain
9:03 AM 68.0 °F 66.2 °F 94% 30.24 in 3.0 mi East 4.6 mph - 0.00 in Rain Light Rain
9:16 AM 68.0 °F 66.2 °F 94% 30.24 in 2.0 mi ESE 6.9 mph - 0.00 in Rain Light Rain
9:29 AM 68.0 °F 66.2 °F 94% 30.24 in 3.0 mi ESE 5.8 mph - 0.00 in Rain Light Rain
9:37 AM 68.0 °F 66.2 °F 94% 30.24 in 2.0 mi East 4.6 mph - 0.00 in Rain Light Rain
9:53 AM 69.1 °F 66.9 °F 93% 30.24 in 2.5 mi Calm Calm - 0.00 in Rain Light Rain
9:55 AM 69.8 °F 66.2 °F 88% 30.24 in 3.0 mi East 3.5 mph - 0.00 in Rain Light Rain
10:02 AM 69.8 °F 68.0 °F 94% 30.24 in 6.0 mi East 3.5 mph - 0.00 in Rain Light Rain
10:15 AM 69.8 °F 68.0 °F 94% 30.22 in 10.0 mi East 6.9 mph - 0.00 in   Overcast
10:39 AM 71.6 °F 69.8 °F 94% 30.22 in 10.0 mi East 6.9 mph - 0.00 in   Mostly Cloudy
10:53 AM 72.0 °F 69.1 °F 91% 30.22 in 10.0 mi East 6.9 mph - 0.00 in   Mostly Cloudy
11:00 AM 71.6 °F 69.8 °F 94% 30.21 in 10.0 mi East 6.9 mph - N/A   Mostly Cloudy
11:15 AM 73.4 °F 69.8 °F 88% 30.20 in 10.0 mi East 10.4 mph - N/A   Scattered Clouds
11:40 AM 73.4 °F 69.8 °F 88% 30.20 in 10.0 mi ESE 8.1 mph - N/A   Mostly Cloudy
11:53 AM 75.0 °F 69.1 °F 82% 30.19 in 10.0 mi East 6.9 mph - N/A   Mostly Cloudy
12:03 PM 75.2 °F 69.8 °F 83% 30.19 in 10.0 mi East 8.1 mph - N/A   Mostly Cloudy
12:22 PM 73.4 °F 68.0 °F 83% 30.16 in 10.0 mi East 10.4 mph - N/A   Mostly Cloudy
12:53 PM 75.0 °F 68.0 °F 79% 30.14 in 10.0 mi East 5.8 mph - N/A   Overcast
1:07 PM 73.4 °F 69.8 °F 88% 30.13 in 6.0 mi ESE 6.9 mph - 0.00 in Rain Light Rain
1:45 PM 71.6 °F 69.8 °F 94% 30.11 in 10.0 mi ESE 6.9 mph - 0.00 in   Overcast
1:53 PM 73.0 °F 69.1 °F 87% 30.11 in 10.0 mi ESE 10.4 mph - 0.00 in   Overcast
2:26 PM 73.4 °F 69.8 °F 88% 30.10 in 10.0 mi ESE 10.4 mph - N/A   Partly Cloudy
2:44 PM 73.4 °F 69.8 °F 88% 30.09 in 10.0 mi ESE 11.5 mph - N/A   Mostly Cloudy
2:53 PM 73.0 °F 69.1 °F 87% 30.09 in 10.0 mi ESE 9.2 mph - N/A   Mostly Cloudy
3:41 PM 73.4 °F 69.8 °F 88% 30.10 in 10.0 mi ESE 9.2 mph - N/A   Scattered Clouds
3:53 PM 73.0 °F 69.1 °F 87% 30.10 in 10.0 mi ESE 10.4 mph - N/A   Partly Cloudy
4:53 PM 73.0 °F 69.1 °F 87% 30.08 in 10.0 mi ESE 9.2 mph - N/A   Clear
5:53 PM 72.0 °F 68.0 °F 87% 30.06 in 10.0 mi ESE 9.2 mph - N/A   Clear
6:53 PM 71.1 °F 68.0 °F 90% 30.07 in 10.0 mi ESE 8.1 mph - N/A   Clear
7:53 PM 71.1 °F 66.9 °F 87% 30.08 in 10.0 mi SE 5.8 mph - N/A   Clear
8:53 PM 71.1 °F 66.0 °F 84% 30.06 in 10.0 mi SE 10.4 mph - N/A   Partly Cloudy
9:53 PM 71.1 °F 66.0 °F 84% 30.04 in 10.0 mi SE 11.5 mph - N/A   Mostly Cloudy
10:53 PM 71.1 °F 66.9 °F 87% 30.04 in 10.0 mi SE 10.4 mph - N/A   Clear
11:53 PM 70.0 °F 66.9 °F 90% 30.05 in 10.0 mi SSE 5.8 mph - N/A   Clear